Theta_e
327 328 329 329 329 329 330 330 330 330 330 329 328 328 328 328 328 328 328 327 327 326 325 325 325 326 325 325 324 323 323 322 322 321 321 321 321 321 321 322 322 322 322 322 321 321 320 319 319 319 318 318 318 318 318 318 318 318 318 319 319 319 319 319 319 319 319 319 318 318 319 319 319 319 320 320 320 320 320 321 322 322 323 323 323
326 327 327 327 328 328 329 329 330 329 328 328 327 327 327 327 327 327 327 327 327 328 327 327 327 327 327 327 327 326 325 324 324 324 323 323 322 322 322 322 322 322 321 322 322 322 322 322 322 321 321 321 321 321 320 320 320 320 319 319 320 320 320 320 320 320 320 320 320 320 320 320 320 321 321 322 322 322 323 323 324 324 324 324 324
325 325 326 326 326 326 327 327 327 327 325 325 325 326 327 327 327 327 327 327 328 328 327 328 327 328 328 328 327 327 327 327 327 327 326 326 325 325 324 323 323 323 322 322 321 321 322 323 323 323 323 323 323 323 323 323 323 322 322 322 322 321 321 321 321 321 321 320 321 321 321 321 321 321 322 323 324 324 324 325 325 325 325 324 324
325 325 325 325 325 325 325 326 325 324 323 322 322 323 324 326 326 327 327 327 327 328 328 328 328 327 328 327 327 326 326 327 327 327 327 327 327 327 327 326 325 324 324 323 322 321 321 321 322 323 324 324 324 324 324 324 324 324 324 324 324 323 323 323 323 322 322 322 322 322 322 323 323 323 323 324 324 325 325 325 325 325 325 324 324
324 324 324 324 324 325 325 325 325 324 323 322 320 320 320 321 323 325 327 327 327 327 327 327 327 327 327 327 326 326 326 327 326 326 326 327 327 328 328 328 327 327 326 325 324 323 322 321 322 322 323 323 323 324 324 324 324 324 324 324 324 323 324 324 324 324 323 323 323 322 322 324 324 324 325 325 326 326 326 326 325 325 324 324 324
324 323 323 323 323 324 324 325 325 325 324 323 321 320 320 320 319 321 323 325 326 327 327 327 327 327 327 327 326 326 327 326 326 326 326 326 326 327 327 327 327 326 327 327 326 325 323 322 322 322 322 323 323 323 324 324 324 324 324 324 324 323 324 324 324 323 324 324 324 323 323 323 324 324 325 326 326 326 326 325 325 325 325 324 324
324 324 323 323 322 322 323 323 324 324 323 323 322 321 321 320 319 319 319 319 321 322 324 325 326 326 327 327 326 326 326 326 326 326 324 324 325 326 326 326 326 325 325 326 327 326 325 324 323 323 323 323 323 323 323 323 324 324 324 324 324 324 324 324 323 323 324 324 323 323 323 324 324 323 323 324 325 325 325 325 325 325 325 324 324
324 324 324 323 323 322 322 322 322 322 321 320 321 321 320 320 320 320 320 319 318 318 320 321 322 323 325 326 327 327 327 326 326 326 324 324 325 325 325 325 325 324 324 325 325 326 327 326 325 324 324 324 324 324 324 324 324 324 324 324 324 324 324 323 323 323 324 323 323 323 323 324 324 323 323 323 324 324 324 324 325 325 324 324 323
323 324 324 323 323 323 323 323 322 321 321 320 321 321 321 322 322 322 323 323 322 321 320 321 321 321 323 326 327 327 327 327 326 326 325 324 325 324 324 324 323 323 323 324 324 325 326 326 326 325 325 325 325 325 325 324 324 324 324 324 323 324 324 324 324 324 324 324 324 324 324 324 324 324 324 324 324 324 324 324 324 324 324 323 322
323 324 324 323 323 323 323 323 323 323 323 323 323 323 323 323 323 324 324 324 324 324 323 322 322 322 323 324 325 326 326 325 325 325 324 324 324 323 323 322 321 321 321 322 323 323 324 325 326 326 326 325 325 326 326 325 324 324 324 324 323 323 324 324 324 324 324 324 324 324 324 324 324 324 324 324 324 324 323 323 323 322 322 322 320
323 324 324 323 323 323 324 324 323 323 323 323 323 323 324 324 324 324 324 323 324 324 324 324 323 323 323 323 324 324 323 323 323 323 322 322 322 322 321 321 321 320 320 320 320 321 322 323 324 325 326 326 326 326 326 326 326 325 324 324 324 324 323 324 325 325 325 325 325 325 324 324 324 324 324 324 324 324 323 323 323 322 321 320 318
324 324 324 324 324 324 324 323 323 323 322 322 322 322 323 323 323 323 323 323 323 323 324 325 325 324 324 323 323 322 322 322 322 321 321 322 321 321 322 322 322 321 321 321 320 319 319 320 321 322 323 325 327 327 327 327 326 325 325 325 325 324 323 324 325 325 325 325 325 325 324 324 324 324 324 324 324 324 323 323 322 322 321 319 317
324 324 324 323 323 323 323 323 323 323 322 322 322 323 323 322 323 322 322 322 322 322 323 324 324 324 323 323 323 322 322 322 322 322 322 321 321 321 322 323 323 323 323 322 320 319 318 318 319 319 320 321 324 326 327 327 327 326 325 325 325 324 324 324 324 324 324 325 325 325 325 325 324 324 324 324 324 324 323 323 322 321 320 318 318
323 323 323 323 323 322 322 322 322 322 322 321 322 322 322 322 322 322 322 321 321 322 322 322 322 322 322 322 322 321 321 321 321 321 321 321 321 321 322 322 323 324 323 322 321 321 320 320 319 318 317 318 322 325 326 326 327 326 326 326 325 325 324 324 324 324 325 324 325 325 325 325 325 325 324 324 324 324 323 323 322 320 319 319 318
323 323 323 323 323 322 321 322 322 322 322 322 322 322 322 322 322 322 322 321 321 321 321 321 320 320 320 320 320 320 320 320 320 320 320 320 320 320 320 321 321 322 322 323 323 323 323 322 321 320 319 320 323 325 325 326 326 326 326 326 325 325 325 325 324 324 325 325 324 324 325 325 325 325 325 325 324 324 323 322 321 320 319 319 319
321 322 322 322 322 322 321 321 322 322 322 322 322 322 322 322 322 321 321 320 320 320 320 319 319 318 319 319 319 319 319 319 319 319 319 319 319 319 319 319 320 320 321 322 324 324 324 324 323 323 323 324 326 325 325 326 326 326 326 325 325 325 325 324 324 324 325 325 324 324 325 325 325 325 325 325 325 324 323 322 321 320 320 320 319
321 320 320 320 321 321 321 321 322 322 322 321 321 321 322 322 322 321 320 320 319 318 318 318 317 318 318 318 318 318 318 318 318 318 318 318 318 319 319 320 320 320 321 321 323 324 325 325 325 326 326 327 326 326 326 326 326 326 325 325 325 325 325 324 324 325 324 324 324 324 325 325 325 325 325 325 324 323 323 322 321 320 320 319 319
320 320 320 320 320 320 321 321 321 321 321 321 321 322 322 321 320 320 319 318 318 318 318 318 318 318 318 318 318 318 318 318 318 318 318 318 318 318 318 319 319 320 320 320 322 323 325 326 326 327 326 327 327 326 326 327 327 326 325 325 325 325 325 324 324 324 323 324 324 324 325 325 325 326 325 325 324 323 322 321 321 320 320 319 319
320 320 320 320 320 320 320 321 321 321 321 321 321 320 319 318 318 318 318 317 318 318 318 318 318 318 317 317 317 317 317 317 317 317 317 317 317 317 318 318 318 319 319 320 321 322 324 325 325 326 326 327 327 327 327 327 327 327 326 325 325 325 324 324 324 323 323 323 324 324 325 325 326 325 325 325 324 323 323 321 321 320 320 320 319
320 320 320 320 321 321 321 321 321 320 320 319 318 317 317 317 317 317 317 317 318 318 318 317 317 317 316 316 317 317 317 317 317 317 317 317 317 317 317 317 317 318 318 319 320 321 322 323 324 325 326 327 327 328 328 328 327 326 325 324 324 324 324 324 323 323 322 323 324 324 325 325 325 325 325 325 324 323 323 321 321 321 320 319 319
320 320 320 320 321 320 319 319 318 317 316 316 315 316 316 316 317 317 317 317 317 317 317 317 316 315 315 314 315 315 316 316 317 317 317 317 317 317 317 317 317 317 317 318 318 319 320 321 322 324 325 326 327 327 326 326 325 325 324 324 323 323 323 323 322 322 322 323 323 324 325 325 325 325 325 324 324 323 322 322 321 320 319 318 318
318 317 317 317 317 316 316 315 315 315 315 315 315 315 315 315 315 316 316 317 317 317 317 317 316 315 315 314 314 313 313 314 315 316 317 317 317 317 317 317 316 316 316 316 316 317 318 320 321 323 324 324 325 325 324 324 324 324 323 323 323 322 322 321 321 321 322 322 323 324 324 325 325 325 325 324 324 323 323 322 321 320 320 319 318
316 315 314 314 314 314 314 313 313 314 314 314 314 314 314 314 314 314 314 315 315 315 316 316 316 316 316 316 315 314 313 312 312 314 316 317 317 317 317 317 317 316 316 316 316 316 318 320 322 323 324 324 323 323 323 323 323 323 323 322 321 321 320 320 320 320 320 321 322 323 323 324 325 325 325 324 324 323 323 322 321 320 320 320 319
314 314 313 312 312 312 312 311 311 311 312 311 311 312 312 312 312 312 312 312 312 312 312 313 313 314 314 315 315 315 314 313 311 311 313 315 316 316 316 316 316 317 317 317 317 316 317 318 321 322 323 323 323 322 322 322 322 321 321 320 320 320 319 319 320 320 320 321 321 321 322 323 324 324 324 324 323 323 322 321 320 319 319 320 320
313 313 312 311 311 310 310 309 310 310 309 309 309 310 310 310 310 309 309 310 310 310 310 310 310 310 310 312 312 313 314 313 312 311 311 312 314 315 316 316 316 316 316 317 317 317 316 317 318 319 320 321 321 322 322 321 320 320 319 319 319 319 319 319 320 320 321 321 320 321 322 323 324 324 324 323 323 323 322 320 320 319 319 321 320
311 311 311 311 310 310 309 308 309 309 308 308 308 308 308 308 308 308 308 308 308 309 309 309 309 309 308 308 309 311 313 313 312 310 310 311 312 314 315 316 316 316 316 316 317 317 317 317 317 317 318 319 319 320 320 320 320 319 319 319 319 319 319 319 320 320 320 320 320 321 322 323 324 323 323 323 322 322 321 320 319 319 320 321 320
309 309 309 309 309 309 308 308 308 308 308 307 307 307 307 307 307 307 308 308 309 309 310 310 310 309 308 308 308 310 312 312 311 310 310 311 312 313 314 315 316 316 316 316 317 317 317 318 318 318 318 317 318 318 318 318 319 319 319 319 319 319 319 319 319 319 319 319 319 321 322 323 323 323 322 322 321 321 320 320 319 319 320 321 320
308 308 308 307 307 307 307 307 307 307 307 307 307 307 307 307 307 308 309 310 310 311 311 311 310 309 309 308 308 309 311 312 312 310 310 311 312 313 314 315 315 316 316 316 316 316 317 318 318 319 319 318 318 318 318 318 318 318 318 318 318 318 319 319 319 318 318 319 320 321 322 322 322 321 321 321 321 320 320 320 319 319 320 320 320
307 307 307 307 307 307 307 307 307 307 307 307 307 307 308 308 309 310 311 310 310 311 311 311 310 310 309 308 309 309 311 312 312 311 310 311 312 313 314 314 314 314 314 315 316 316 317 318 318 319 319 318 318 318 318 318 317 317 317 317 317 318 318 318 318 318 319 319 320 320 320 320 320 319 319 319 319 318 319 319 319 318 320 321 321
307 307 307 307 307 307 308 308 308 308 308 308 309 309 310 311 311 311 310 310 311 311 311 310 310 309 309 309 310 311 312 312 312 311 311 311 312 313 314 314 314 313 313 313 314 315 316 317 318 319 318 318 318 317 317 317 317 316 317 317 317 317 317 318 318 319 319 319 319 319 318 318 318 317 317 317 317 317 318 319 318 319 319 321 321
306 306 307 307 307 308 308 308 309 309 309 309 310 311 311 312 312 310 309 309 311 311 310 309 309 309 309 310 311 312 312 312 311 311 312 313 313 313 314 314 313 313 312 312 312 314 316 316 317 318 318 318 318 318 318 317 317 316 316 316 317 317 317 318 318 318 318 317 317 317 316 315 316 315 316 316 317 318 319 319 320 321 321 321 321
306 307 307 308 308 308 309 309 310 310 310 310 311 312 312 311 311 310 310 310 310 309 308 309 309 310 310 310 311 311 312 312 312 312 312 313 314 314 314 314 314 313 312 311 311 312 314 316 316 316 317 318 318 318 318 317 317 316 315 315 316 316 317 317 317 316 316 315 314 314 314 314 314 315 316 317 318 319 320 321 322 322 322 322 322
307 307 308 308 308 308 308 308 308 308 308 308 309 310 310 310 310 311 311 311 310 309 309 310 310 311 311 311 312 312 312 312 312 312 313 313 314 314 313 313 313 313 313 312 311 311 313 315 315 315 316 317 317 318 318 318 317 315 314 315 315 315 315 315 315 314 313 313 313 313 314 314 315 316 316 317 318 319 321 322 322 322 322 322 322
306 307 307 307 307 307 306 306 307 307 307 307 308 309 310 311 311 311 311 309 309 310 311 312 312 312 312 312 313 313 313 313 313 313 313 313 313 313 313 313 313 312 312 313 312 311 311 313 315 315 315 316 316 317 317 318 317 315 314 313 313 313 314 313 313 313 312 312 313 314 315 315 316 316 316 317 318 320 321 321 320 320 320 320 320
306 307 307 307 307 307 307 307 308 308 308 309 309 310 310 310 310 309 308 308 309 310 311 311 312 312 313 313 313 313 313 313 313 313 313 313 313 313 313 313 313 313 313 313 313 312 311 312 314 315 315 315 315 316 317 317 316 314 313 312 312 313 313 313 313 312 312 313 314 315 315 315 316 316 317 318 319 320 320 320 320 319 319 318 318
307 307 308 308 308 308 308 309 309 309 309 309 309 309 308 308 308 307 307 308 309 310 310 311 311 312 312 312 312 312 312 312 312 312 312 312 312 312 313 313 313 313 313 313 313 312 312 312 314 315 315 315 315 315 316 316 315 313 313 312 312 312 312 312 312 312 313 314 314 315 315 316 316 317 317 318 319 318 318 319 319 319 318 317 317
308 308 308 308 308 308 308 308 309 309 308 308 308 307 307 307 308 308 308 309 310 310 310 311 311 311 311 311 311 311 311 312 312 312 312 312 312 312 313 313 313 313 313 313 313 313 313 312 313 315 315 315 315 314 315 315 314 312 312 312 312 312 312 312 312 312 313 314 314 314 315 316 317 317 317 318 318 317 317 317 317 317 317 316 316
307 307 307 306 306 306 306 307 307 307 307 307 307 307 307 307 308 308 309 309 310 310 310 310 311 311 310 310 310 310 310 310 311 311 311 312 312 312 312 313 313 313 313 313 313 313 313 312 313 314 315 315 315 314 314 314 313 311 311 312 312 312 312 312 312 312 313 313 314 314 314 315 316 317 317 317 317 317 317 317 317 317 316 314 313
304 304 304 305 305 305 305 305 305 306 306 306 306 307 307 307 307 308 308 308 309 309 310 310 310 310 309 309 309 309 308 309 309 309 310 310 311 312 312 313 313 313 314 314 314 314 313 313 313 314 315 315 315 314 313 313 312 311 311 311 311 311 312 312 312 313 313 313 313 314 314 315 316 317 317 317 317 317 317 317 316 314 313 311 309
302 302 302 303 303 303 304 304 304 305 305 305 306 306 306 306 307 307 307 307 308 308 308 309 309 309 309 308 308 308 308 308 309 309 309 310 310 311 312 312 313 313 313 314 314 313 314 314 314 314 314 315 315 314 313 312 311 311 311 311 311 311 312 312 312 313 313 313 313 314 315 315 316 317 316 316 316 317 316 315 313 311 309 308 307
300 300 301 301 301 301 302 302 302 303 304 304 304 305 305 305 305 306 306 306 307 307 307 308 308 308 308 308 308 308 308 308 309 309 309 310 310 311 312 312 313 313 313 314 313 313 313 313 313 313 313 313 314 313 313 312 311 311 311 311 311 311 313 313 313 313 313 313 314 314 315 316 316 316 316 316 316 315 313 312 310 308 307 306 305
298 298 299 299 299 299 300 300 301 302 302 303 303 303 303 304 304 304 304 305 306 307 307 307 307 308 308 308 308 308 308 308 309 309 310 310 310 311 311 312 312 313 313 313 313 313 312 312 312 311 311 311 311 312 312 312 311 310 311 311 311 312 312 313 313 313 313 314 314 314 315 316 316 316 316 314 312 310 308 307 306 305 304 304 303
297 297 297 298 298 298 297 298 299 300 300 301 302 302 302 302 302 302 303 303 304 305 306 306 306 306 307 307 307 307 307 308 308 309 309 310 310 310 311 312 312 312 312 312 312 311 311 311 310 310 309 309 309 309 310 311 311 310 310 310 311 312 312 312 313 313 313 314 314 314 314 314 314 313 312 310 308 306 305 304 304 303 303 302 302
296 295 296 296 296 297 296 296 296 296 297 298 299 300 300 300 300 300 301 302 302 303 303 304 304 305 306 307 307 306 306 307 308 308 309 310 310 310 310 310 310 311 310 310 310 310 309 309 308 307 307 307 307 308 308 309 310 310 310 310 311 311 311 311 311 312 312 312 312 311 311 310 309 308 307 305 304 303 303 302 302 302 302 301 301
294 294 294 294 294 295 295 294 294 294 294 295 296 297 298 299 299 299 299 300 301 301 302 302 302 302 303 305 306 306 305 306 307 307 308 308 309 309 308 308 308 308 308 308 308 307 307 307 306 305 305 305 305 306 307 307 308 309 310 311 311 311 311 311 311 311 310 309 308 306 305 305 304 304 303 303 302 302 302 302 302 301 301 300 298
293 293 293 293 293 293 293 293 293 293 293 293 294 295 296 297 297 297 298 298 299 300 300 300 299 299 299 302 304 304 304 305 305 305 305 305 305 306 306 306 306 306 306 306 306 305 304 304 303 303 303 303 304 304 305 305 306 306 307 309 309 309 309 308 307 306 305 304 303 302 302 302 302 302 301 301 301 301 301 301 300 299 298 296 295
292 291 291 291 291 292 292 292 292 292 292 292 292 293 294 294 295 296 296 297 297 298 298 297 297 297 297 298 299 301 302 302 303 303 302 301 301 301 302 302 303 303 303 303 302 302 302 301 301 301 301 301 301 302 302 303 303 303 303 303 303 303 303 302 302 301 301 301 301 301 300 300 300 300 300 300 300 300 299 298 297 296 294 293 293
290 289 289 289 290 290 290 290 290 291 290 290 291 292 292 293 293 294 295 295 296 296 296 295 295 295 296 296 296 297 299 299 299 299 299 298 297 297 298 298 298 299 299 299 299 299 299 299 299 299 299 299 299 299 299 300 300 300 300 300 300 300 300 300 300 300 300 300 300 300 300 299 299 299 299 298 298 297 296 295 294 293 293 293 293
288 288 288 288 288 288 288 288 288 289 289 289 289 290 291 291 292 292 293 294 294 295 295 294 294 294 295 295 295 295 296 296 296 295 295 295 294 294 295 295 295 295 296 296 296 297 297 297 297 297 298 298 298 298 298 298 298 298 298 298 298 299 299 299 299 299 299 299 298 298 298 298 297 297 296 296 296 295 293 293 292 292 292 292 292
287 286 286 286 286 286 287 287 287 287 287 288 288 289 290 290 291 291 292 292 293 293 293 293 292 292 292 292 292 293 293 294 294 293 293 292 292 292 293 293 293 293 293 294 295 295 295 295 296 296 296 296 296 296 296 296 296 296 296 296 297 297 298 298 298 298 297 297 297 296 296 295 295 295 294 293 293 292 292 291 291 291 291 291 291
286 286 285 285 285 286 286 286 286 286 287 287 287 287 288 289 289 290 290 290 291 291 291 291 291 290 289 290 290 291 291 292 292 292 292 291 291 291 291 292 292 292 292 292 293 293 294 294 294 295 295 295 295 294 295 295 295 294 294 294 295 295 295 296 296 296 295 294 294 293 293 292 293 292 292 291 291 291 291 290 290 290 290 290 290
Wind_Speed
23 21 21 20 19 19 17 18 21 23 23 23 24 25 25 26 26 26 26 26 26 27 27 28 28 28 29 30 31 31 31 32 32 32 32 32 31 31 31 31 32 33 33 32 32 32 30 30 29 28 28 28 29 29 28 28 28 29 28 28 29 29 29 28 26 25 26 28 29 29 30 30 30 30 31 32 31 31 30 30 29 28 27 25 23
23 22 23 23 23 23 22 22 24 26 26 27 28 29 29 28 28 27 27 28 29 29 30 30 31 30 30 31 31 31 31 32 33 32 32 31 31 31 31 32 33 34 34 34 34 34 32 31 30 30 29 30 30 30 30 30 30 31 31 31 31 31 31 30 28 27 28 30 29 29 31 32 32 32 32 32 30 29 27 26 25 23 22 21 20
25 24 24 25 26 27 28 28 30 31 32 31 31 31 30 30 31 31 31 31 31 31 32 32 33 32 32 32 31 31 31 32 32 32 31 31 31 32 32 32 33 34 35 35 36 35 34 33 32 31 30 31 31 31 32 31 32 32 32 33 33 32 32 31 31 31 30 29 26 27 30 29 29 30 30 29 26 24 23 23 22 21 21 21 21
27 27 27 27 27 28 30 31 32 34 35 35 34 33 33 34 34 34 35 35 34 34 34 34 33 33 33 32 31 30 30 30 31 32 33 33 34 34 34 34 34 35 36 36 37 37 36 34 33 33 32 32 33 33 33 32 32 32 32 33 33 33 34 33 33 32 32 30 25 24 24 21 23 26 25 26 24 22 23 23 22 22 22 22 23
28 27 27 28 28 29 31 31 31 32 34 35 36 37 38 38 37 37 36 36 36 36 36 35 34 34 33 33 32 31 32 32 33 34 34 35 35 35 35 34 35 36 37 38 38 37 37 36 35 35 34 34 34 35 34 34 33 33 33 33 34 34 34 34 34 33 33 32 29 26 22 18 20 22 21 22 22 21 21 21 22 22 23 25 26
31 30 29 29 29 30 31 31 31 32 34 35 36 37 37 38 39 39 39 38 38 37 37 36 36 35 35 36 36 36 36 36 37 37 37 37 37 36 35 34 35 36 37 38 39 39 38 37 37 36 36 36 36 36 36 35 35 35 34 34 34 34 34 34 35 34 33 33 33 32 29 26 26 24 21 20 20 20 21 22 23 24 25 27 27
35 36 35 35 34 33 33 34 34 35 36 36 37 37 37 38 38 39 40 41 41 41 40 40 40 39 38 39 40 41 41 42 41 40 40 40 40 39 38 37 37 37 37 38 38 39 39 39 38 38 37 37 38 38 38 37 36 35 35 35 35 34 34 36 36 35 34 34 34 34 33 33 33 32 29 25 21 21 22 22 23 24 25 25 26
36 37 37 38 38 38 38 39 40 40 40 40 40 40 40 41 40 39 39 40 41 42 43 44 44 43 43 42 43 44 44 45 44 43 42 42 41 42 42 41 41 40 40 39 39 39 39 40 40 39 39 39 39 39 39 38 37 35 35 35 36 36 36 37 36 35 36 36 35 34 33 33 33 34 34 32 29 27 29 27 25 25 25 26 28
36 36 35 36 37 38 38 39 39 39 40 41 41 40 40 40 39 38 38 38 38 39 41 43 43 43 44 44 44 44 45 45 44 43 43 42 42 43 43 43 43 42 42 41 41 40 40 40 40 41 40 40 40 40 40 39 39 38 37 36 36 37 38 38 37 37 37 36 35 35 35 33 33 33 33 34 34 34 35 35 32 30 28 29 29
34 35 35 36 36 35 34 34 35 35 35 36 37 37 37 38 38 38 37 36 36 35 37 40 41 42 42 43 43 44 44 44 44 44 44 43 44 44 44 44 44 44 44 43 42 41 41 40 40 41 42 42 42 42 41 42 41 40 39 38 37 38 39 40 40 39 38 37 36 36 37 35 35 34 34 34 35 34 35 36 34 33 32 33 31
33 33 34 36 35 33 32 31 32 32 30 31 32 32 33 34 34 35 35 35 35 35 35 37 39 41 41 42 43 43 44 44 45 46 45 45 46 46 46 46 45 46 46 45 44 43 42 41 41 41 41 43 44 44 44 43 43 42 41 39 39 38 39 40 40 40 39 38 38 38 39 38 38 37 36 35 34 34 35 35 34 33 34 35 33
30 32 33 34 32 31 31 31 32 30 29 29 29 29 29 29 29 30 30 31 33 34 34 35 37 39 40 41 42 42 42 43 44 45 45 45 45 45 45 45 45 45 45 45 46 45 44 44 43 42 42 43 44 45 45 44 44 44 42 42 41 40 40 40 41 41 41 40 40 39 40 39 39 39 37 36 35 34 33 34 34 33 34 35 33
29 30 31 32 31 30 30 31 30 29 28 27 28 28 28 28 27 28 28 28 29 30 32 33 34 36 38 39 40 40 41 42 43 44 44 44 44 44 44 44 44 44 44 46 46 46 46 46 46 45 45 45 44 44 44 44 44 45 44 43 42 42 41 42 42 42 41 41 40 39 39 40 40 39 38 37 36 34 32 34 34 32 33 33 31
26 29 30 31 30 29 30 30 29 28 28 27 27 27 27 27 27 28 28 27 26 27 28 29 30 31 33 35 36 37 38 39 40 42 42 42 43 43 43 43 43 44 44 45 45 45 46 46 47 46 46 46 44 43 43 43 44 45 45 44 43 42 42 42 42 41 41 40 39 39 39 41 41 40 39 38 36 35 34 34 32 31 31 31 30
24 26 29 30 30 29 30 31 30 28 28 28 27 26 26 27 27 27 28 27 26 26 26 26 27 28 28 30 32 33 34 35 36 37 37 38 39 40 41 42 42 43 43 44 44 44 45 46 46 46 46 45 45 44 44 44 44 44 45 44 43 43 42 42 42 41 41 41 40 40 40 41 42 41 40 39 37 36 35 33 31 29 28 29 29
24 23 24 27 28 28 29 31 30 29 28 27 26 25 25 26 26 27 28 27 26 25 25 25 25 26 26 27 28 29 31 32 33 33 33 34 35 36 38 39 40 41 41 42 42 43 45 45 45 46 46 46 45 45 45 45 44 44 44 44 44 43 43 42 42 42 42 41 40 40 40 42 42 41 40 39 37 36 34 32 32 30 29 28 28
29 28 28 28 28 27 28 30 29 27 26 26 26 25 24 25 25 26 26 24 22 21 21 22 22 22 22 22 24 25 27 28 30 31 31 32 33 35 36 37 37 38 38 40 41 41 43 43 44 45 45 45 45 45 45 45 44 44 44 44 44 43 43 43 42 42 42 41 40 40 40 41 41 40 40 39 37 35 34 33 33 32 31 29 27
29 29 29 28 27 26 27 27 26 25 25 24 22 21 21 21 21 22 21 19 18 17 18 18 18 18 17 17 18 20 22 24 26 27 28 30 32 33 35 36 37 37 37 37 39 40 41 42 43 43 44 45 44 44 45 45 44 45 45 44 44 43 43 43 43 42 41 40 40 40 40 40 40 39 39 38 37 35 34 34 33 33 31 31 29
27 27 28 28 27 26 25 25 24 21 19 17 15 15 16 17 18 18 17 16 15 15 15 15 14 13 12 13 14 16 18 21 23 24 26 28 30 31 33 35 35 36 37 37 38 38 40 41 43 44 44 44 44 45 45 44 44 45 44 43 43 43 43 43 42 41 40 39 39 39 40 40 39 39 38 38 37 36 35 34 34 33 32 31 29
25 25 24 21 18 16 15 13 11 10 10 9 10 11 11 12 13 13 13 11 9 8 9 9 8 9 10 12 13 15 16 19 20 22 25 27 28 29 31 33 34 35 36 37 37 38 39 41 43 44 45 45 44 44 44 43 43 43 43 43 43 43 44 43 42 40 39 39 39 40 40 40 39 39 38 38 37 36 35 34 34 33 32 31 29
3 4 2 1 1 4 5 6 8 10 11 12 12 12 12 12 11 11 10 7 6 6 7 8 9 10 12 13 15 16 17 18 19 21 23 25 26 28 29 30 32 33 34 35 37 38 39 41 42 43 44 44 44 44 43 43 43 44 44 43 43 43 44 43 41 40 40 40 40 41 41 41 39 39 39 38 37 36 35 34 34 34 33 30 29
11 10 10 8 8 9 11 13 15 16 17 18 18 18 17 17 16 16 14 13 12 14 15 15 16 16 16 18 19 20 21 21 21 21 22 22 23 25 26 27 29 30 31 33 36 37 38 39 40 42 43 43 43 44 44 43 44 44 44 43 43 43 43 42 42 42 41 40 41 42 42 41 40 39 40 39 38 37 35 35 35 34 33 31 29
13 13 14 15 16 17 18 20 21 21 22 23 24 24 24 24 24 24 23 21 20 21 22 23 24 24 24 25 25 25 25 25 25 25 24 23 22 23 23 25 27 28 28 30 33 35 36 38 39 41 42 43 43 43 43 43 43 43 44 43 42 42 42 42 43 42 41 41 42 42 42 41 40 40 40 39 39 38 37 37 37 35 34 34 31
18 19 21 22 22 23 25 26 27 27 27 28 29 30 29 30 30 30 30 29 28 27 27 28 29 30 30 30 30 29 28 28 28 28 27 26 25 25 25 25 27 27 28 29 30 32 34 36 38 40 41 42 42 43 43 43 43 43 43 42 41 41 42 42 42 42 42 42 42 43 42 41 40 40 41 41 40 40 39 38 37 35 34 34 32
24 27 30 30 30 32 34 35 35 35 36 37 36 35 34 34 34 35 36 36 35 34 34 33 32 33 33 34 34 33 31 30 30 30 30 29 28 28 28 28 28 28 29 29 29 30 31 34 36 38 40 41 42 42 42 43 43 42 41 40 39 40 41 42 42 43 43 43 43 44 43 42 41 41 42 42 41 41 40 38 37 35 34 33 32
32 36 39 41 42 43 45 44 44 43 43 43 41 40 40 39 38 38 38 38 39 38 37 36 36 36 36 37 36 34 32 31 31 31 31 31 30 30 30 30 29 29 29 30 30 30 31 32 34 35 37 38 39 40 41 41 41 40 39 39 39 40 42 43 43 44 44 44 44 44 43 43 43 43 42 42 42 41 40 39 37 35 34 34 32
40 45 48 50 51 52 52 51 49 48 47 45 42 41 41 41 40 38 37 37 37 36 36 36 37 38 38 39 38 36 33 32 31 31 31 31 31 30 30 30 30 30 30 30 30 31 31 31 32 33 34 34 35 36 37 38 38 37 37 38 39 41 42 44 45 45 45 45 45 44 44 44 44 43 43 42 41 41 40 39 36 35 34 33 32
41 45 49 51 52 51 50 48 46 45 43 42 40 38 37 38 38 35 33 33 33 33 34 35 36 37 38 39 39 38 36 34 32 31 31 31 31 31 30 30 30 30 30 30 30 31 31 31 31 31 32 32 32 33 34 35 35 35 37 39 40 42 43 44 45 46 46 45 45 44 44 43 43 42 42 41 41 40 39 38 36 34 33 33 33
40 43 45 45 45 45 45 43 41 39 38 37 37 35 34 35 35 32 30 29 30 31 32 34 35 37 39 39 39 39 39 37 35 32 32 31 31 30 31 31 31 31 30 30 30 30 30 31 31 30 30 31 32 33 34 34 35 36 38 40 41 42 44 45 46 46 46 45 45 44 43 42 41 41 40 40 39 38 37 36 35 33 33 34 34
40 41 41 41 41 41 41 39 39 38 37 35 35 35 34 34 32 31 30 30 29 29 31 33 35 37 40 41 40 40 40 39 38 35 32 31 31 31 31 33 33 33 31 30 30 30 30 31 32 32 32 33 34 35 35 36 37 38 39 40 42 43 45 45 46 46 46 45 44 43 42 41 40 39 38 38 37 36 34 32 31 30 30 33 34
37 38 40 41 41 41 39 37 36 36 35 34 33 31 30 29 30 31 33 33 31 32 33 35 37 39 41 42 42 42 41 41 40 36 32 31 31 31 33 34 35 34 33 32 32 32 31 31 32 33 34 35 36 37 37 38 39 39 40 41 43 44 45 45 46 46 45 44 42 41 41 40 39 38 37 36 34 32 30 29 30 31 31 31 32
35 34 32 30 31 33 33 31 31 30 30 29 27 26 26 29 31 33 34 34 34 35 37 38 39 40 41 42 42 42 42 41 40 36 33 32 32 33 34 35 36 36 36 36 35 35 34 32 32 34 36 37 38 38 39 40 41 41 42 43 44 45 45 45 44 43 42 41 40 39 39 39 38 37 36 34 32 29 29 30 33 34 34 33 32
28 25 19 18 21 24 26 27 28 27 27 28 28 30 31 30 30 30 31 33 35 36 36 37 38 39 40 40 41 41 41 41 39 37 34 34 35 36 37 38 38 38 38 39 39 38 37 36 35 35 36 37 38 38 39 41 41 42 43 43 45 45 45 44 42 41 40 39 38 38 38 38 37 36 35 33 31 30 31 33 33 33 34 34 33
26 24 23 25 28 31 32 30 28 26 26 27 28 30 30 29 29 31 33 35 35 35 34 34 35 36 38 38 39 39 40 40 39 37 35 36 37 39 40 40 39 39 39 40 40 40 40 40 38 37 37 38 39 39 40 41 41 41 42 44 45 45 44 43 41 40 40 39 39 38 38 37 36 36 35 33 32 31 33 34 34 35 35 35 35
27 25 26 26 27 28 28 25 24 22 22 23 24 25 28 31 33 35 36 36 36 34 33 33 33 33 34 35 35 37 38 39 40 39 39 39 40 40 41 41 39 39 40 40 40 41 42 42 41 39 38 39 40 40 40 41 40 40 41 43 43 43 43 43 42 41 41 40 39 39 38 38 37 36 35 33 33 33 34 34 35 35 35 36 36
16 15 15 16 16 17 18 18 19 20 21 23 25 27 29 32 34 36 37 37 36 35 35 34 33 33 33 33 34 36 38 40 41 42 42 42 41 40 40 39 40 40 41 41 41 42 43 43 42 40 40 40 41 40 41 42 41 41 41 42 42 43 43 43 43 42 42 41 40 39 38 38 37 36 34 33 33 34 34 35 36 36 36 36 36
7 7 8 9 11 12 14 16 18 21 24 27 28 30 32 33 33 35 36 36 36 36 36 36 36 36 35 33 32 34 36 39 40 41 42 42 41 40 39 38 38 39 40 40 40 41 43 44 43 42 41 41 40 39 41 42 42 42 42 42 42 43 44 44 44 43 43 42 40 39 38 37 37 36 35 34 34 34 34 36 37 37 37 37 35
7 8 10 12 14 16 19 20 21 23 25 27 28 29 30 31 32 34 35 36 36 36 36 37 38 38 37 35 33 32 34 37 39 40 41 41 41 40 40 38 37 38 39 39 39 39 41 43 44 44 42 42 41 39 39 41 42 42 43 43 43 44 45 45 45 44 43 42 40 39 38 38 37 36 35 34 35 35 35 35 36 35 35 35 33
13 15 17 19 20 21 22 22 22 23 24 25 26 27 29 30 32 34 35 36 36 36 37 37 38 37 37 36 35 35 35 37 38 39 40 39 39 39 39 38 38 38 39 39 39 39 40 41 43 44 42 42 42 40 39 39 40 42 43 43 43 45 46 46 45 45 44 42 41 40 38 38 37 36 35 35 35 36 35 34 33 33 33 31 29
17 18 20 20 19 20 20 20 21 22 23 24 25 26 28 29 30 31 33 33 35 36 36 37 37 37 37 36 36 36 36 37 38 39 39 38 37 37 37 38 39 39 39 39 39 40 41 40 41 42 41 40 40 39 39 39 39 41 42 41 42 45 46 46 45 45 44 43 42 40 39 38 38 37 35 35 35 35 35 33 32 31 30 28 26
16 16 18 19 19 18 18 18 19 21 22 24 25 26 28 28 28 29 30 31 32 33 33 35 36 37 37 37 36 35 35 36 37 37 38 38 37 35 35 37 38 39 39 39 39 39 40 40 40 40 39 39 37 37 39 39 38 39 40 39 39 41 42 42 42 43 43 42 41 41 40 39 38 37 36 35 35 34 33 32 30 28 26 24 24
18 17 18 19 20 19 18 17 18 20 22 23 24 26 27 27 28 28 29 29 30 31 32 34 35 36 37 37 36 35 34 35 36 35 36 37 36 33 34 36 37 38 38 39 39 38 38 39 39 38 38 38 37 36 38 39 39 38 36 34 35 37 37 38 39 40 40 40 40 40 39 38 37 37 36 34 32 30 29 29 28 27 25 24 24
21 20 19 19 19 19 19 18 18 18 19 21 23 24 25 26 26 27 28 29 29 30 30 32 33 36 37 37 36 35 33 33 33 33 33 35 34 33 33 34 36 37 37 38 38 36 35 35 36 36 36 37 37 37 38 38 38 37 34 32 33 35 36 37 38 39 38 39 39 38 37 36 35 35 33 31 29 28 28 27 27 26 26 25 25
21 20 19 18 16 16 17 18 18 18 17 18 20 22 23 24 24 25 26 27 28 28 28 29 29 32 35 36 35 34 32 31 30 30 30 31 32 32 32 32 33 34 35 35 35 33 32 32 32 32 34 35 37 38 37 37 37 36 34 32 33 36 38 38 38 39 38 37 36 34 32 31 31 30 30 29 28 28 27 26 25 24 23 23 23
20 19 17 16 15 14 14 15 17 17 17 16 16 18 20 21 22 23 25 25 26 26 26 26 26 27 30 32 33 31 29 27 26 26 27 28 29 30 30 30 29 30 30 31 31 30 29 29 28 29 31 33 35 36 36 35 34 33 32 32 33 35 37 38 38 38 37 35 32 27 25 26 27 27 27 26 25 24 23 22 21 20 20 20 20
19 18 16 15 14 13 13 13 14 16 16 16 16 16 18 19 20 21 23 24 24 24 24 24 24 25 26 27 28 27 25 24 23 22 22 24 25 26 26 26 26 26 26 26 27 27 27 26 26 26 28 31 33 34 34 33 32 30 31 32 33 35 36 36 35 33 31 28 25 23 21 22 23 23 23 22 21 20 20 20 20 20 21 21 20
18 17 16 15 14 13 13 13 14 15 16 17 17 17 17 18 19 20 21 22 22 22 22 22 22 23 24 24 25 23 22 22 21 20 19 20 21 22 23 22 22 22 22 22 22 23 24 24 24 24 25 27 29 30 30 30 29 28 28 29 30 31 31 30 28 26 24 22 20 20 20 20 21 22 21 21 21 20 20 20 21 21 21 20 19
15 15 15 14 14 13 13 13 14 15 16 17 18 18 18 18 18 19 20 20 20 19 19 20 20 21 21 21 22 22 21 20 20 21 20 20 20 20 21 20 20 20 20 20 20 20 20 21 21 22 23 24 25 26 26 25 24 24 24 25 25 25 24 23 22 21 20 19 19 20 21 21 22 22 21 21 21 20 19 20 20 20 19 18 17
13 14 14 14 14 13 13 14 14 15 16 17 18 18 18 18 18 19 20 20 19 18 17 17 18 19 19 19 20 21 20 19 19 19 19 19 19 19 19 18 18 19 18 18 18 18 18 18 18 19 21 21 22 22 21 20 19 19 19 20 20 21 21 20 19 18 18 19 20 21 21 21 21 20 20 20 20 20 20 19 18 17 16 15 15
11 12 13 13 13 13 13 13 14 15 16 17 18 18 18 18 18 19 19 20 20 19 18 17 17 18 19 19 19 19 19 18 17 16 16 17 17 17 16 15 15 15 16 16 15 15 15 15 15 16 17 18 18 18 17 16 15 15 15 15 16 16 16 17 17 17 17 17 18 19 20 19 19 19 18 18 19 19 19 18 17 16 15 14 14
11 11 12 13 13 13 13 14 14 16 16 17 18 18 18 18 18 18 19 20 20 20 19 18 18 17 17 17 17 17 16 16 15 14 14 14 14 14 13 13 12 12 12 12 11 9 10 11 12 12 13 14 14 14 14 13 13 13 12 12 12 13 14 15 17 17 17 16 16 18 18 17 17 17 17 16 17 17 16 16 15 14 13 12 12
Wind_Direction
242 238 235 236 237 239 241 242 245 247 249 252 257 261 263 264 265 265 266 265 264 261 260 258 257 257 257 258 259 261 262 262 262 263 265 267 269 270 271 271 272 272 272 271 270 269 269 269 269 267 265 265 267 268 269 268 268 268 268 267 267 266 267 268 267 264 263 265 269 273 276 276 278 279 279 281 282 284 285 285 285 285 285 287 287
242 239 235 236 236 237 238 238 241 247 253 257 261 264 263 262 261 262 263 263 263 262 261 261 261 262 263 264 265 266 266 265 265 266 267 268 268 268 269 269 269 269 270 270 269 269 269 269 269 269 268 267 267 267 267 265 265 266 265 266 266 267 268 268 266 262 260 264 270 274 277 279 279 279 279 280 281 281 281 281 281 282 284 286 287
241 241 239 240 241 242 243 243 245 252 257 260 262 263 262 260 259 259 259 259 259 259 259 260 262 266 269 271 271 269 268 268 269 269 268 267 265 265 265 265 265 267 268 268 269 269 270 269 269 268 267 267 266 265 265 264 264 265 266 266 266 266 268 268 266 263 262 265 267 271 277 282 284 282 281 282 282 281 279 278 279 281 284 285 285
241 241 242 244 245 246 248 249 252 256 258 259 259 259 258 258 258 258 257 257 256 256 256 258 261 266 269 270 269 268 268 268 268 268 266 265 264 263 262 262 264 265 267 268 269 269 269 269 269 268 266 266 265 265 265 265 266 266 266 266 264 264 267 269 267 265 264 262 258 262 272 278 280 282 284 284 283 280 280 280 281 283 284 284 284
242 242 242 243 244 246 249 252 254 255 257 259 259 259 259 258 259 258 258 257 257 256 256 257 260 261 262 262 259 259 261 262 263 266 267 266 266 266 266 266 266 267 267 266 268 269 270 269 268 267 266 265 265 265 266 267 267 266 266 265 265 266 268 268 267 265 267 264 259 259 261 263 270 278 282 283 281 279 280 279 279 280 282 283 283
245 246 245 245 244 245 247 250 251 252 255 259 261 261 262 261 261 260 259 258 258 258 258 259 260 259 258 254 251 253 256 260 264 269 273 273 274 274 274 273 271 270 269 267 266 266 267 267 266 266 265 265 265 265 266 266 266 266 266 265 266 267 265 263 265 267 267 266 265 264 261 260 266 271 273 275 276 274 274 275 275 276 278 280 282
245 247 247 247 246 245 245 246 247 249 253 258 260 261 262 263 263 262 261 261 260 260 259 260 260 260 259 255 253 254 257 262 267 272 275 276 276 276 276 275 275 274 272 270 268 266 265 264 265 265 265 265 265 264 265 266 267 267 267 266 266 265 261 260 264 265 263 265 268 269 266 263 261 262 263 265 269 270 270 270 270 271 274 275 277
242 244 246 247 248 248 248 247 248 251 254 257 258 259 260 261 262 262 261 262 262 261 260 260 260 260 260 259 257 257 259 263 268 271 274 274 274 274 274 275 275 275 274 272 270 268 266 264 263 263 264 265 264 264 265 266 266 266 266 266 266 263 261 262 264 261 260 265 269 267 267 265 261 259 259 259 261 264 266 264 263 264 265 268 275
237 242 245 247 249 251 253 253 254 255 257 257 256 257 259 260 261 262 262 262 262 261 260 259 260 260 260 259 259 260 262 265 268 270 271 270 270 271 272 273 274 274 274 272 271 269 268 267 265 264 263 264 264 264 265 264 264 266 266 266 266 265 263 262 262 261 261 263 264 264 265 264 261 259 258 256 255 257 262 265 267 266 263 267 276
231 239 245 247 249 252 256 258 258 258 258 259 258 257 257 257 259 261 262 262 262 261 260 259 259 259 259 259 260 261 263 265 267 267 268 268 268 268 269 270 272 272 273 272 271 270 269 269 267 266 265 264 263 263 263 262 262 264 267 267 266 265 264 262 262 263 262 260 260 260 261 261 260 259 259 258 256 255 259 265 271 271 271 275 279
227 233 242 247 249 252 255 258 259 259 259 259 259 259 258 257 258 260 262 263 263 261 260 259 258 258 258 259 261 263 265 266 266 266 266 265 265 266 267 268 269 270 271 271 270 270 269 268 268 268 268 265 263 262 262 262 263 263 265 265 263 263 264 264 262 262 261 260 258 258 259 260 261 262 264 263 261 259 260 264 270 273 274 277 277
225 229 237 244 249 253 254 256 257 258 259 259 260 262 262 262 262 264 266 267 266 264 262 259 257 257 259 260 261 264 266 266 265 266 266 264 264 264 264 264 265 265 266 266 267 268 268 267 267 267 267 266 265 265 264 264 263 261 261 261 261 262 263 263 261 261 262 261 260 259 259 259 259 262 265 264 263 264 264 265 270 274 274 275 276
228 229 234 240 247 253 255 256 257 259 262 263 263 263 265 268 268 269 272 275 274 270 266 262 259 259 259 260 262 263 264 264 264 264 264 264 263 262 261 260 260 260 260 262 265 267 267 267 268 268 268 268 269 268 266 265 262 259 259 260 260 260 262 263 262 263 263 263 263 261 258 256 258 260 262 261 263 264 262 263 269 272 270 273 277
236 233 234 237 242 251 257 259 260 262 266 268 266 266 269 271 271 273 278 282 281 277 274 270 266 265 263 263 264 265 265 265 265 265 265 264 263 262 261 259 258 257 258 260 263 265 266 266 267 268 268 268 268 267 266 264 262 259 258 259 258 259 261 262 262 262 263 262 262 260 256 254 255 257 258 258 260 261 261 265 269 268 267 271 273
242 234 235 238 242 252 260 260 260 264 269 270 269 270 272 272 274 277 281 286 287 285 283 280 277 274 272 270 269 269 269 269 269 269 268 266 265 264 263 261 259 258 258 259 260 261 263 264 265 265 265 265 264 264 264 263 261 259 258 258 257 258 258 259 261 261 260 260 260 259 258 255 252 252 254 256 258 260 262 265 264 261 261 266 269
242 239 244 247 247 253 260 261 261 265 270 272 273 274 274 274 277 280 285 288 290 290 289 287 284 281 277 275 273 272 271 271 270 270 268 268 267 266 265 264 263 261 260 258 257 258 259 261 262 263 263 263 262 262 262 261 260 258 258 257 256 256 257 259 261 260 259 259 259 259 258 256 254 251 251 253 256 259 261 262 259 255 254 259 264
240 245 253 255 253 254 258 262 264 267 272 276 279 280 278 278 281 284 287 289 292 294 292 288 285 282 279 277 276 275 274 273 273 272 271 270 270 269 268 267 265 264 262 260 258 257 257 258 260 261 262 261 261 262 261 260 258 258 258 257 256 256 257 259 259 258 258 258 258 258 257 257 256 253 251 252 254 256 257 257 255 254 253 253 256
241 245 250 252 255 257 257 261 266 271 277 281 283 284 285 287 289 291 293 294 296 296 290 285 281 280 280 280 281 280 279 278 278 277 276 274 272 271 270 268 267 266 265 264 261 258 257 257 258 259 260 260 260 260 260 258 256 256 256 256 257 257 258 258 257 257 258 257 256 256 255 255 255 254 254 254 253 253 255 254 254 254 253 251 251
242 243 245 248 255 261 262 264 270 277 283 287 291 295 298 299 300 300 300 298 296 291 284 280 280 285 293 296 295 293 289 286 283 282 280 278 276 275 273 271 270 268 267 265 263 260 257 257 257 258 258 258 258 257 257 256 254 255 256 256 257 258 257 256 256 256 257 256 254 254 253 253 253 253 253 253 251 251 252 253 254 253 251 251 251
244 240 241 247 258 271 275 276 283 295 301 307 318 325 324 315 309 306 301 294 293 293 288 284 290 304 312 314 312 308 303 298 293 288 284 282 281 280 277 274 272 271 268 266 264 262 259 258 257 256 255 255 255 255 255 254 255 256 256 257 258 257 256 256 256 256 255 253 252 252 252 253 253 252 252 251 250 251 252 252 252 253 252 251 251
242 223 197 137 41 358 348 340 331 324 321 323 330 337 338 332 326 321 315 309 311 318 320 318 318 318 319 323 323 319 316 311 306 300 294 289 286 284 282 280 277 274 272 270 268 266 263 261 258 256 254 254 254 254 254 255 255 256 256 256 257 256 256 256 256 255 253 252 252 251 251 251 251 250 251 250 250 251 252 250 249 251 252 251 249
52 47 42 35 18 356 345 340 334 328 327 327 327 327 325 324 323 321 318 316 314 315 317 319 320 318 318 321 322 321 320 316 312 309 305 302 296 290 287 285 282 279 277 275 272 270 267 264 261 258 256 255 255 254 255 255 255 255 255 255 255 255 255 255 254 254 254 254 253 252 252 250 246 246 248 250 250 251 250 249 249 250 251 252 249
17 11 3 353 347 341 335 333 332 329 329 328 326 324 321 319 318 317 315 314 312 311 311 312 313 313 313 315 315 316 317 315 313 311 309 309 308 303 297 292 289 287 285 281 277 271 267 264 261 259 257 256 256 256 255 254 254 254 254 254 255 255 255 254 255 256 257 256 253 253 252 250 245 243 244 247 250 251 251 250 250 249 247 249 252
345 340 338 335 332 329 325 324 323 321 320 319 318 318 317 316 316 315 315 314 312 312 311 311 310 310 309 309 309 311 311 312 312 310 308 308 309 309 307 303 299 296 292 289 284 275 267 262 259 257 257 257 257 257 256 255 255 255 254 255 255 255 255 255 257 258 258 257 255 253 252 251 246 244 244 246 248 251 251 250 249 249 248 249 251
325 322 321 319 317 316 315 314 314 313 313 313 312 311 310 310 309 310 310 310 310 310 310 309 308 308 307 306 305 306 306 307 309 308 307 306 306 306 306 306 304 301 296 292 289 283 273 266 261 258 257 258 258 258 257 256 256 255 255 255 255 256 256 257 259 259 258 258 256 254 253 250 247 247 248 249 249 250 250 249 249 251 251 250 250
317 314 311 310 309 309 309 309 308 307 308 308 307 306 305 304 304 304 305 305 306 306 306 305 304 304 303 302 302 302 302 302 305 306 305 304 304 303 302 302 303 302 299 293 289 287 282 275 270 265 261 260 259 259 258 257 256 255 255 256 256 257 258 259 259 259 259 258 256 254 252 250 248 250 252 252 252 251 250 250 249 249 249 249 250
307 306 305 304 303 303 304 304 302 302 303 303 303 303 302 301 301 300 300 301 301 302 301 300 300 300 299 298 298 299 299 299 302 304 303 301 301 300 298 297 297 299 299 296 291 287 285 282 277 273 270 266 263 260 259 257 256 255 255 256 257 258 259 259 259 259 259 258 256 254 252 251 251 252 254 254 253 252 252 252 251 249 247 248 249
292 292 293 293 294 296 296 295 295 296 297 298 298 298 297 296 297 297 296 297 297 298 297 296 296 296 295 294 294 295 296 298 301 303 302 300 298 296 294 292 292 293 296 297 294 288 283 280 277 275 274 271 265 262 260 259 258 257 258 258 259 259 258 258 258 258 257 256 255 254 253 253 254 255 255 255 253 252 251 250 251 249 247 247 247
277 277 278 279 281 282 284 286 289 290 291 292 292 291 290 291 294 296 298 298 298 298 296 295 295 295 293 292 292 292 292 295 299 301 299 298 296 292 289 287 287 288 292 294 295 292 284 277 274 273 272 269 266 264 263 263 263 263 262 262 261 259 258 257 256 255 255 255 254 254 255 255 256 256 256 255 255 254 250 248 249 247 245 246 246
269 270 271 271 272 273 275 279 284 286 286 286 287 287 288 291 294 298 302 304 303 300 297 296 295 292 291 291 291 291 292 294 296 297 296 294 292 288 284 282 282 283 286 289 292 291 286 278 272 269 268 267 266 267 267 267 267 267 266 263 261 259 257 256 255 254 254 254 255 255 256 256 256 256 256 255 254 253 250 249 250 247 243 245 245
267 267 268 268 269 267 266 270 277 281 282 284 286 287 289 292 296 299 301 303 301 299 296 294 291 287 288 290 291 292 294 296 297 296 293 290 287 283 279 278 278 279 282 286 288 287 285 281 274 268 265 265 265 267 268 269 269 269 267 263 260 258 256 255 255 254 255 256 256 256 256 256 256 255 254 253 251 248 247 248 250 248 245 245 246
267 267 268 273 274 268 263 265 272 277 282 287 290 292 293 294 296 297 298 298 296 292 290 289 287 288 289 291 293 295 297 298 297 295 291 287 286 282 279 278 278 278 281 284 285 285 284 282 277 269 264 263 263 264 266 268 269 269 266 262 259 257 256 256 255 255 256 256 255 255 255 255 254 253 252 251 246 242 241 243 245 245 244 245 245
273 275 281 292 292 288 285 285 286 290 293 294 293 293 295 295 296 295 293 291 291 291 291 291 291 292 293 293 295 297 298 297 295 293 290 288 287 286 284 283 282 282 282 282 282 284 284 283 280 274 268 264 263 263 263 265 266 267 264 261 258 257 257 257 256 255 255 254 253 253 252 251 251 250 248 246 242 238 237 238 240 240 240 241 242
284 287 291 292 291 293 295 295 295 296 294 290 287 287 288 289 289 289 289 290 293 296 296 296 295 293 293 294 296 296 296 295 294 293 292 291 290 288 287 286 285 283 282 280 280 281 281 282 282 279 274 268 264 263 262 263 265 264 262 259 257 257 257 256 255 254 253 252 251 250 248 248 247 245 244 242 238 237 236 236 238 239 239 240 241
284 283 283 282 281 282 284 285 286 285 282 282 284 284 283 284 285 288 291 294 298 299 297 295 294 293 293 293 294 293 293 293 294 294 294 293 291 289 289 288 287 284 281 279 278 277 278 279 281 282 280 273 267 264 262 262 263 263 260 256 255 254 254 254 253 251 251 250 248 247 247 246 245 243 242 239 236 236 236 237 237 239 240 241 241
281 274 267 264 263 265 269 272 275 278 282 285 288 290 290 290 290 292 294 295 297 297 296 294 292 291 291 290 290 290 291 291 292 293 293 292 291 290 289 288 287 285 284 282 280 278 278 279 280 281 281 276 270 266 263 261 261 260 257 254 252 251 250 250 249 249 248 248 247 246 246 246 244 242 239 237 235 235 235 235 236 237 239 239 240
260 253 251 257 261 266 274 278 278 281 286 288 290 292 294 294 294 294 293 293 293 295 295 294 291 290 289 290 290 289 290 290 291 292 292 292 291 290 289 287 283 281 281 280 279 279 279 280 280 280 280 278 273 268 264 263 262 259 255 252 251 249 247 247 247 247 247 246 246 246 246 245 243 241 238 235 235 236 235 235 235 236 237 239 240
283 282 284 287 289 290 293 293 290 286 287 288 290 292 292 293 294 293 292 292 292 292 292 291 289 289 290 292 293 291 291 292 293 293 292 293 293 292 290 288 283 279 277 276 275 275 275 277 279 280 281 281 278 270 264 263 263 260 255 252 250 248 246 245 246 246 246 246 245 245 245 244 243 241 238 235 235 236 236 235 235 236 238 239 238
311 307 304 303 302 301 299 297 294 289 287 287 287 288 289 290 290 290 290 291 291 291 290 290 290 291 292 293 294 293 293 294 295 296 295 295 294 293 291 288 284 282 279 277 275 273 271 272 274 277 280 282 282 276 267 263 264 262 256 252 249 248 246 246 245 245 245 245 244 243 243 242 241 241 239 236 236 238 238 238 237 237 237 236 235
317 314 313 312 309 305 302 299 297 293 290 289 287 286 287 288 287 287 289 290 291 291 292 292 292 292 293 293 293 293 294 295 296 297 297 296 294 292 289 286 284 282 281 279 277 276 274 272 272 274 276 278 281 279 270 264 264 263 258 253 250 248 247 246 245 245 244 243 242 241 240 239 239 240 239 237 237 238 239 239 238 237 236 235 233
328 323 319 319 318 315 311 307 303 300 295 293 290 287 287 287 288 288 288 289 290 291 293 293 293 293 294 294 295 296 297 297 297 297 297 296 295 291 287 284 282 280 280 279 278 277 276 275 275 276 275 275 277 277 271 266 264 262 257 253 250 249 247 246 246 245 244 243 242 241 240 239 239 239 238 236 236 237 238 238 237 235 234 231 228
335 332 328 325 323 321 317 311 306 302 299 297 295 293 292 292 292 292 290 290 290 291 293 295 295 295 295 295 297 298 298 298 297 297 296 296 295 290 285 282 280 279 279 279 278 278 278 277 277 278 278 276 276 275 271 267 266 263 257 251 249 247 246 245 246 246 245 244 243 242 242 241 241 240 239 238 238 236 235 234 232 230 226 221 219
334 333 331 329 326 323 321 318 312 306 302 301 300 299 299 299 299 299 297 295 295 293 293 294 297 297 296 296 298 299 300 299 297 296 295 295 293 289 283 279 277 276 277 278 278 278 279 279 279 280 280 278 277 275 273 269 267 264 256 248 244 242 241 241 243 244 244 245 245 245 244 244 243 242 240 237 234 230 228 227 225 221 218 214 213
331 331 331 331 327 322 320 319 318 316 314 311 306 304 305 306 307 307 304 303 302 301 298 298 300 300 297 295 297 300 301 300 297 295 293 291 290 287 282 279 276 275 276 277 279 279 279 279 280 281 281 279 277 275 274 271 268 264 256 247 241 239 239 239 240 240 241 243 245 247 248 246 243 238 232 227 224 222 221 220 218 216 214 213 213
327 328 330 331 329 325 322 320 320 322 326 326 320 314 312 313 314 315 314 312 311 310 308 308 310 310 304 298 297 301 303 302 299 296 293 290 288 286 284 282 280 277 277 278 279 281 280 278 280 281 280 278 276 274 272 269 266 261 254 246 239 237 238 239 240 240 240 240 242 244 243 240 235 229 224 221 219 218 216 215 214 214 215 217 217
321 324 327 330 332 331 327 324 324 326 331 336 335 331 326 324 324 324 324 324 322 319 319 319 321 322 318 309 304 304 306 306 304 302 299 296 294 292 290 289 287 285 283 282 282 282 281 279 279 279 277 275 274 272 271 268 263 257 249 241 235 233 235 238 239 240 239 237 235 231 228 226 224 220 218 217 215 213 213 212 212 214 215 216 216
322 327 330 331 334 336 334 334 334 334 338 343 344 343 341 338 335 334 332 332 331 328 329 332 332 330 329 325 320 316 315 314 314 314 311 307 304 303 302 301 300 299 296 294 291 288 285 282 278 275 273 271 270 270 269 267 262 255 245 236 230 229 231 233 235 235 233 229 224 219 215 214 212 209 207 207 207 207 210 213 213 213 212 213 215
326 329 331 334 338 340 342 343 341 341 343 345 346 347 348 347 345 343 341 340 338 336 338 341 341 339 338 336 334 332 328 326 327 326 324 322 319 316 313 312 311 309 307 304 301 296 291 285 279 273 270 267 266 266 267 265 261 254 245 236 229 226 226 228 228 227 224 218 212 208 206 204 204 204 202 203 204 207 211 214 215 214 213 214 216
331 332 334 338 341 342 345 345 345 345 345 345 346 347 347 349 351 349 348 348 347 346 348 350 350 349 349 349 347 344 341 340 339 336 334 333 332 328 324 320 317 316 317 315 308 301 294 288 279 272 268 265 262 262 262 261 256 247 240 236 230 225 222 218 216 215 213 207 203 203 203 202 202 203 205 206 206 207 209 211 213 214 214 214 216
336 338 338 338 338 341 345 346 345 346 345 344 344 344 343 347 351 353 355 355 355 356 358 0 2 1 360 359 358 354 352 350 348 345 340 339 338 336 333 330 327 329 331 329 321 308 296 288 281 272 265 262 260 257 253 249 241 231 225 223 219 215 212 207 205 204 205 204 202 203 204 205 206 207 208 207 204 204 207 208 209 211 213 214 215
338 338 335 335 337 340 344 346 348 347 345 344 343 342 342 344 347 353 358 359 359 1 4 6 8 8 5 3 1 360 359 357 355 353 351 348 346 343 340 339 340 343 345 343 338 324 303 292 286 278 269 261 255 251 246 237 226 217 214 211 205 202 200 199 198 197 197 200 203 204 203 204 204 204 205 203 199 199 202 204 206 206 207 211 211